Regional Weather Roundup
Issued by NWS

Home | Current Version | Previous Version | Text Only | Print | Product List | Glossary Off
Versions: 1 2 3 4 5 6 7 8 9 10 11 12 13 14 15 16 17 18 19 20 21 22 23 24 25 26 27 28 29 30 31 32 33 34 35 36 37 38 39 40 41 42 43 44 45 46 47 48 49 50

112
ASUS43 KBIS 230910
RWRND

NORTH DAKOTA REGIONAL WEATHER ROUNDUP
NATIONAL WEATHER SERVICE BISMARCK ND
400 AM CDT SAT SEP 23 2017

NOTE: "FAIR" INDICATES FEW OR NO CLOUDS BELOW 12,000 FEET WITH NO
SIGNIFICANT WEATHER AND/OR OBSTRUCTIONS TO VISIBILITY.


NDZ001>003-009>011-017-231000-
NORTHWEST NORTH DAKOTA

CITY           SKY/WX    TMP DP  RH WIND       PRES   REMARKS
WILLISTON      CLOUDY    44  42  93 N5        30.09R
MINOT          CLOUDY    48  45  89 N6        30.05S
MINOT AFB      CLOUDY    47  44  91 N5        30.03S
$$

NDZ018>021-031>035-040>046-231000-
SOUTHWEST NORTH DAKOTA

CITY           SKY/WX    TMP DP  RH WIND       PRES   REMARKS
BISMARCK       CLOUDY    49  47  93 NW12      30.01R
GARRISON         N/A     45  45 100 N10       30.02F
HETTINGER ARPT CLOUDY    43  41  93 N7        30.05R
$$

NDZ004>008-012>016-024-026-027-054-231000-
NORTHEAST NORTH DAKOTA

CITY           SKY/WX    TMP DP  RH WIND       PRES   REMARKS
GRAND FORKS    CLOUDY    51  51 100 NW15      29.91S
GRND FRKS AFB  CLOUDY    50  50 100 N9        29.93R
DEVILS LAKE    CLOUDY    48  43  82 N16       29.99S
$$

NDZ022-023-025-028>030-036>039-047>053-231000-
SOUTHEAST NORTH DAKOTA

CITY           SKY/WX    TMP DP  RH WIND       PRES   REMARKS
FARGO          CLOUDY    54  52  93 NW15      29.91R
JAMESTOWN      CLOUDY    50  47  89 N12       29.99R
$$





USA.gov is the U.S. government's official web portal to all federal, state and local government web resources and services.